Regional Weather Roundup
Issued by NWS Memphis, TN

Home | Current Version | Previous Version | Text Only | Print | Product List | Glossary On
Versions: 1 2 3 4 5 6 7 8 9 10 11 12 13 14 15 16 17 18 19 20 21 22 23 24 25 26 27 28 29 30 31 32 33 34 35 36 37 38 39 40 41 42 43 44 45 46 47 48 49 50
000
ASUS44 KMEG 010510
RWRMEG
MEMPHIS CWA HOURLY WEATHER ROUNDUP
NATIONAL WEATHER SERVICE MEMPHIS TN
1200 AM CDT THU SEP 01 2016

...WEST TENNESSEE...

CITY           SKY/WX    TMP DP  RH WIND       PRES   REMARKS
MEMPHIS INTL   PTCLDY    82  72  71 N7        29.96S
NWS MEMPHIS      N/A     80 N/A N/A MISG        N/A
JACKSON        CLEAR     76  73  91 CALM      29.97S
BOLIVAR        CLEAR     73  72  94 CALM      29.96S FOG
LEXINGTON      CLEAR     75  73  94 CALM      29.96S
DYERSBURG      CLEAR     75  70  83 MISG        N/A
UNION CITY     CLEAR     73  73 100 N5        29.98S
PARIS          CLEAR     72  70  94 N6        29.99S
HUNTINGDON     CLEAR     75  72  88 N5        29.97R


...EASTERN ARKANSAS...

CITY           SKY/WX    TMP DP  RH WIND       PRES   REMARKS
JONESBORO      CLEAR     77  70  79 NE7       29.99R
WEST MEMPHIS   PTCLDY    77  74  90 N5        29.95S
BATESVILLE     MOCLDY    73  72  94 NW3       30.01F
NEWPORT        PTCLDY    76  73  91 N7        29.99S
WALNUT RIDGE   CLEAR     75  70  83 N7        30.00S
BLYTHEVILLE    CLEAR     74  72  93 N8        29.98S
SEARCY         PTCLDY    77  74  90 N6        30.00F
STUTTGART      PTCLDY    75  70  83 N8        29.97F
PINE BLUFF     PTCLDY    79  74  84 N7        29.97R
MONTICELLO     CLEAR     83  73  72 VRB3      29.95S


...NORTH MISSISSIPPI...

CITY           SKY/WX    TMP DP  RH WIND       PRES   REMARKS
TUPELO         CLEAR     78  72  81 N7        29.93S
OXFORD         CLEAR     75  68  78 NE3       29.97S
BATESVILLE     CLEAR     76  72  88 CALM      29.96R
TUNICA         PTCLDY    75  73  94 N6        29.96S
CLARKSDALE     CLEAR     77  77 100 N5        29.95R
CORINTH        CLEAR     75  72  88 CALM      29.95S
GREENWOOD      CLEAR     75  71  87 N5        29.92R
COLUMBUS       CLEAR     77  72  83 NW5       29.90S
GOLDEN TRIANGL CLEAR     79  66  65 N6        29.90S


...SOUTHEAST MISSOURI...

CITY           SKY/WX    TMP DP  RH WIND       PRES   REMARKS
KENNETT        CLEAR     75  72  88 N9        29.98S
WEST PLAINS    PTCLDY    71  69  93 N6        30.09S
POPLAR BLUFF   PTCLDY    72  69  90 N5        30.01R
CAPE GIRARDEAU MOCLDY    73  69  87 NW3       30.01R


...NORTHWEST ALABAMA...

CITY           SKY/WX    TMP DP  RH WIND       PRES   REMARKS
MUSCLE SHOALS  CLEAR     80  71  74 VRB3      29.95S


...MIDDLE TENNESSEE...

CITY           SKY/WX    TMP DP  RH WIND       PRES   REMARKS
NASHVILLE      CLEAR     77  72  84 CALM      29.96S
CLARKSVILLE    CLEAR     75  71  87 N8        29.97S
COLUMBIA       CLEAR    N/A N/A N/A CALM      29.95S


...WESTERN KENTUCKY...

CITY           SKY/WX    TMP DP  RH WIND       PRES   REMARKS
PADUCAH        CLEAR     73  69  87 N3        29.99S
FORT CAMPBELL  CLEAR     76  71  86 NW6       29.97S


...CENTRAL ARKANSAS...

CITY           SKY/WX    TMP DP  RH WIND       PRES   REMARKS
LITTLE ROCK    CLOUDY    81  71  71 NE6       29.98S


SKY/WX REPORTED AS FAIR MEANS FEW OR NO CLOUDS BELOW
12 THOUSAND FEET.





USA.gov is the U.S. government's official web portal to all federal, state and local government web resources and services.